798 Art Zone, China

2:39 PM CST on May 23, 2017 (GMT +0800)
798 Art Zone

Weather History for 54511 - November, 2013

Change the Weather History Date:

Friday, November 8, 2013

  Actual Average Record
Temperature  
Mean Temperature 44 °F -  
Max Temperature 57 °F 47 °F - ()
Min Temperature 32 °F 28 °F - ()
Degree Days  
Heating Degree Days 20    
Moisture  
Dew Point 27 °F    
Average Humidity 54    
Maximum Humidity 75    
Minimum Humidity 22    
Precipitation  
Precipitation 0.00 in 0.01 in - ()
Sea Level Pressure  
Sea Level Pressure 30.13 in    
Wind  
Wind Speed 2 mph ()    
Max Wind Speed 7 mph    
Max Gust Speed -    
Visibility 4.3 miles    
Events      
T = Trace of Precipitation, MM = Missing Value Source: Averaged Metar Reports

Daily Weather History Graph

Daily Weather History Graph

Search for Another Location

Airport or City:

Trip Planner

Search our weather history database for the weather conditions in past years. The results will help you decide how hot, cold, wet, or windy it might be!

Date:

Astronomy

Nov. 08, 2013 Rise Set
Actual Time 6:50 AM CST 5:04 PM CST
Civil Twilight 6:22 AM CST 5:33 PM CST
Nautical Twilight 5:49 AM CST 6:05 PM CST
Astronomical Twilight 5:18 AM CST 6:37 PM CST
Moon 11:19 AM CST (11/8) 9:45 PM CST (11/8)
Length of Visible Light 11h 11m
Length of Day
10h 14m
Waxing Crescent, 27% of the Moon is Illuminated
Nov 8
Waxing Crescent
Nov 10
First Quarter
Nov 17
Full
Nov 26
Last Quarter
Dec 3
New

Hourly Weather History & Observations

Time (CST) Temp. Windchill Dew Point Humidity Pressure Visibility Wind Dir Wind Speed Gust Speed Precip Events Conditions
12:00 AM 35.6 °F - 21.2 °F 56% 30.12 in 5.0 mi North 2.2 mph - N/A   Unknown
12:30 AM 35.6 °F - 23.0 °F 60% 30.12 in 5.0 mi Variable 2.2 mph - N/A   Unknown
1:00 AM 35.6 °F - 24.8 °F 65% 30.15 in 5.0 mi Calm Calm - N/A   Unknown
1:30 AM 33.8 °F - 24.8 °F 70% 30.15 in 5.0 mi NNE 2.2 mph - N/A   Unknown
2:00 AM 38 °F - 28 °F 55% 30.16 in - ENE 2.2 mph - -  
2:00 AM 35.6 °F - 24.8 °F 65% 30.15 in 5.0 mi Variable 2.2 mph - N/A   Unknown
2:30 AM 33.8 °F - 23.0 °F 65% 30.15 in 5.0 mi East 2.2 mph - N/A   Unknown
3:00 AM 32.0 °F 27.6 °F 21.2 °F 64% 30.15 in 5.0 mi NNW 4.5 mph - N/A   Unknown
3:30 AM 33.8 °F 29.7 °F 24.8 °F 70% 30.15 in 5.0 mi North 4.5 mph - N/A   Unknown
4:00 AM 33.8 °F 29.7 °F 24.8 °F 70% 30.15 in 4.3 mi North 4.5 mph - N/A   Unknown
4:30 AM 33.8 °F 29.7 °F 23.0 °F 65% 30.15 in 4.3 mi North 4.5 mph - N/A   Unknown
5:00 AM 37 °F - 28 °F 59% 30.15 in - ENE 2.2 mph - -  
5:00 AM 32.0 °F - 24.8 °F 75% 30.15 in 4.3 mi North 2.2 mph - N/A   Unknown
5:30 AM 32.0 °F - 24.8 °F 75% 30.15 in 4.3 mi North 2.2 mph - N/A   Unknown
6:00 AM 32.0 °F - 24.8 °F 75% 30.15 in 4.3 mi Calm Calm - N/A   Unknown
6:30 AM 32.0 °F - 24.8 °F 75% 30.15 in 4.3 mi Variable 2.2 mph - N/A   Unknown
7:00 AM 32.0 °F - 24.8 °F 75% 30.15 in 4.3 mi North 2.2 mph - N/A   Unknown
7:30 AM 32.0 °F 27.6 °F 24.8 °F 75% 30.15 in 4.3 mi NNE 4.5 mph - N/A   Unknown
8:00 AM 39 °F - 28 °F 52% 30.17 in 3 mi NE 2.2 mph - -   Haze
8:00 AM 33.8 °F - 26.6 °F 75% 30.18 in 5.0 mi NNE 2.2 mph - N/A   Unknown
8:30 AM 37.4 °F - 28.4 °F 70% 30.18 in 5.0 mi North 2.2 mph - N/A   Unknown
9:00 AM 42.8 °F 40.2 °F 28.4 °F 57% 30.18 in - North 4.5 mph - N/A   Clear
9:30 AM 44.6 °F - 26.6 °F 49% 30.18 in - Variable 2.2 mph - N/A   Clear
10:00 AM 48.2 °F - 24.8 °F 40% 30.18 in - NNW 4.5 mph - N/A   Clear
10:30 AM 50.0 °F - 23.0 °F 35% 30.15 in - Variable 2.2 mph - N/A   Clear
11:00 AM 50.0 °F - 23.0 °F 35% 30.15 in - Variable 2.2 mph - N/A   Clear
11:30 AM 51.8 °F - 24.8 °F 35% 30.15 in - Variable 2.2 mph - N/A   Clear
12:00 PM 53.6 °F - 26.6 °F 35% 30.12 in - ESE 4.5 mph - N/A   Clear
12:30 PM 53.6 °F - 24.8 °F 33% 30.12 in - SE 4.5 mph - N/A   Clear
1:00 PM 55.4 °F - 26.6 °F 33% 30.12 in 5.0 mi Variable 2.2 mph - N/A   Unknown
1:30 PM 57.2 °F - 24.8 °F 29% 30.09 in 5.0 mi South 4.5 mph - N/A   Unknown
2:00 PM 57 °F - 29 °F 22% 30.09 in 5 mi SE 4.5 mph - -   Haze
2:00 PM 57.2 °F - 24.8 °F 29% 30.09 in 5.0 mi SSE 6.7 mph - N/A   Unknown
2:30 PM 57.2 °F - 24.8 °F 29% 30.09 in 5.0 mi South 4.5 mph - N/A   Unknown
3:00 PM 57.2 °F - 26.6 °F 31% 30.09 in 5.0 mi Variable 2.2 mph - N/A   Unknown
3:30 PM 57.2 °F - 24.8 °F 29% 30.06 in 5.0 mi SSW 4.5 mph - N/A   Unknown
4:00 PM 55.4 °F - 24.8 °F 31% 30.06 in 5.0 mi SE 2.2 mph - N/A   Unknown
4:30 PM 53.6 °F - 26.6 °F 35% 30.09 in 3.7 mi Calm Calm - N/A   Unknown
5:00 PM 52 °F - 31 °F 32% 30.09 in 4 mi Calm Calm - -   Haze
5:00 PM 51.8 °F - 28.4 °F 41% 30.09 in 3.7 mi Variable 2.2 mph - N/A   Unknown
5:30 PM 46.4 °F - 30.2 °F 53% 30.09 in 3.7 mi East 2.2 mph - N/A   Unknown
6:00 PM 44.6 °F - 30.2 °F 57% 30.09 in 3.7 mi SE 2.2 mph - N/A   Unknown
6:30 PM 44.6 °F - 32.0 °F 61% 30.09 in 3.7 mi North 2.2 mph - N/A   Unknown
7:00 PM 44.6 °F - 30.2 °F 57% 30.12 in 3.7 mi Calm Calm - N/A   Unknown
7:30 PM 42.8 °F - 32.0 °F 66% 30.12 in 3.7 mi Variable 2.2 mph - N/A   Unknown
8:00 PM 49 °F - 34 °F 45% 30.14 in 2 mi Calm Calm - -   Haze
8:00 PM 44.6 °F - 32.0 °F 61% 30.12 in 3.7 mi Calm Calm - N/A   Unknown
8:30 PM 44.6 °F - 32.0 °F 61% 30.12 in 3.7 mi North 2.2 mph - N/A   Unknown
9:00 PM 46.4 °F - 32.0 °F 57% 30.12 in 3.7 mi Variable 2.2 mph - N/A   Unknown
9:30 PM 46.4 °F - 33.8 °F 62% 30.15 in 3.7 mi Variable 2.2 mph - N/A   Unknown
10:00 PM 46.4 °F - 33.8 °F 62% 30.15 in 3.7 mi Variable 2.2 mph - N/A   Unknown
10:30 PM 44.6 °F - 33.8 °F 66% 30.15 in 3.7 mi Calm Calm - N/A   Unknown
11:00 PM 44.6 °F - 32.0 °F 61% 30.15 in 3.1 mi Calm Calm - N/A   Haze
11:30 PM 46.4 °F 44.4 °F 32.0 °F 57% 30.15 in 3.1 mi NW 4.5 mph - N/A   Haze